Flag for Germany Weather past 2 weeks in Meiningen, Thuringia, Germany

Now
38 °F

Partly sunny.


Feels Like: 33 °F
Forecast: 34 / 38 °F
Wind: 7 mph from Northwest

Location: Meiningen

Current Time: Apr 1, 2015 at 1:41:47 PM

Latest Report: Apr 1, 2015 at 1:00 PM


Visibility: 25 mi

Pressure: 30.00 "Hg

Humidity: 72%

Dew point: 30 °F

Location of MeiningenLocation

Historic Weather in Meiningen — Graph

°F

Meiningen temperature yesterday

Maximum temperature yesterday: 50 °F (at 10:00 AM)
Minimum temperature yesterday: 33 °F (at 4:00 AM)
Average temperature yesterday: 42 °F

Past Weeks' High & Low Weather Summary

 TemperatureHumidityPressure
High62 °F (Mar 25, 3:00 PM)99% (Mar 29, 4:00 AM)30.34 "Hg (Mar 29, 4:00 AM)
Low24 °F (Mar 23, 7:00 AM)23% (Mar 20, 3:00 PM)29.26 "Hg (Mar 31, 8:00 AM)
Average42 °F72%29.96 "Hg
* Reported Mar 17 11:00 AM — Apr 1 12:00 Noon, Meiningen, Weather by CustomWeather, © 2015

Note: Actual official high and low records may vary slightly from our data, if they occured in-between our weather recording intervals... More about our weather records

Advertising

Meiningen weather history for previous 24 hours

 ConditionsComfort  
Time TempWeatherWind HumidityBarometerVisibility
12:00 PM
Wed, Apr 1
36 °FLight snow. Overcast.7 mph76%29.99 "Hg25 mi
11:00 AM35 °FLight snow. Low clouds.9 mph80%29.97 "Hg4 mi
10:00 AM35 °FOvercast.9 mph72%29.95 "Hg34 mi
9:00 AM34 °FOvercast.9 mph76%29.92 "Hg34 mi
8:00 AM35 °FLow clouds.10 mph72%29.88 "Hg22 mi
7:00 AM34 °FScattered clouds.6 mph75%29.87 "Hg25 mi
6:00 AM35 °FLight snow. Low clouds.9 mph76%29.85 "Hg19 mi
4:00 AM34 °FLight snow. Passing clouds.9 mph79%29.82 "Hg4 mi
3:00 AM35 °FPassing clouds.9 mph74%29.80 "Hg34 mi
2:00 AM35 °FPassing clouds.9 mph77%29.80 "Hg43 mi
1:00 AM36 °FOvercast.10 mph76%29.77 "Hg43 mi
12:00 AM35 °FOvercast.9 mph81%29.76 "Hg43 mi
10:00 PM
Tue, Mar 31
37 °FOvercast.9 mph79%29.75 "Hg43 mi
9:00 PM41 °FClear.10 mph63%29.71 "Hg43 mi
8:00 PM43 °FClear.7 mph54%29.67 "Hg43 mi
7:00 PM44 °FSunny.10 mph55%29.63 "Hg19 mi
6:00 PM45 °FScattered clouds.14 mph57%29.58 "Hg19 mi
5:00 PM45 °FPartly sunny.12 mph56%29.54 "Hg18 mi
4:00 PM46 °FPassing clouds.13 mph65%29.50 "Hg16 mi
3:00 PM46 °FLight rain. Overcast.16 mph63%29.44 "Hg19 mi
2:00 PM47 °FLight freezing rain. Scattered clouds.16 mph67%29.44 "Hg6 mi
1:00 PM48 °FScattered clouds.14 mph73%29.38 "Hg11 mi
Weather by CustomWeather, © 2015

See weather overviewHow to use our weather pages